Theta_e
341 347 358 356 357 358 359 360 362 363 364 364 364 364 361 359 359 360 360 360 360 360 359 360 359 359 359 359 358 357 358 358 361 360 360 360 361 360 360 360 358 356 360
344 349 359 361 360 360 360 360 360 362 362 362 362 363 361 360 360 360 360 361 361 360 360 360 359 359 358 358 358 357 357 359 360 360 360 360 360 360 360 360 359 356 359
347 351 354 361 361 360 361 361 361 361 360 361 360 361 361 362 361 361 360 360 360 360 360 360 360 359 359 359 358 356 355 361 361 361 360 358 358 358 360 360 359 358 359
349 353 354 361 362 360 360 360 360 360 361 360 360 361 361 361 361 361 360 360 359 360 360 361 361 358 358 359 358 357 356 360 361 359 354 355 355 360 358 359 359 359 359
350 355 355 363 363 360 360 361 360 361 360 361 361 361 361 361 361 359 359 359 359 359 360 361 360 358 358 357 358 356 358 359 357 352 352 355 357 359 359 358 359 359 359
350 354 360 362 361 362 362 363 363 361 360 360 360 360 360 361 361 359 360 359 359 359 361 361 359 358 358 357 357 357 357 358 352 346 351 357 355 358 359 359 359 358 358
347 354 357 364 362 364 363 362 362 362 362 361 361 360 359 361 360 359 359 360 360 360 361 360 360 359 358 358 355 354 356 354 346 345 349 351 355 360 359 359 358 358 358
348 355 358 362 363 364 362 362 361 360 360 360 361 361 360 359 360 360 359 360 360 360 360 360 359 358 358 356 354 353 354 356 349 346 346 347 353 357 358 359 358 358 358
349 354 356 356 359 363 363 362 361 362 361 361 361 360 359 360 360 360 359 360 360 361 360 359 358 358 356 355 353 352 354 357 346 346 344 345 349 356 359 359 356 356 357
349 353 353 355 355 356 357 363 362 362 361 360 360 360 360 360 360 360 360 360 360 360 360 360 357 358 356 355 354 353 357 353 346 345 346 344 349 357 360 359 358 357 357
350 351 353 353 354 354 355 357 361 362 362 361 361 361 360 353 354 358 360 360 358 359 359 359 360 358 356 354 355 353 356 351 346 347 346 344 350 358 359 358 358 358 357
346 348 353 353 353 353 357 355 354 354 355 353 354 354 354 352 352 354 356 361 360 360 359 361 359 357 355 353 353 354 352 351 347 349 349 349 352 359 359 359 359 358 357
346 348 352 352 352 352 352 352 351 351 352 352 351 352 350 350 349 351 351 351 352 357 355 358 356 352 351 350 350 349 349 349 350 349 350 354 356 359 359 359 358 358 358
343 346 349 351 351 351 351 351 349 349 350 349 350 349 346 346 347 348 349 351 349 352 352 353 351 350 350 350 344 344 343 347 349 347 349 355 359 360 360 359 359 358 359
340 343 346 349 349 350 349 349 348 348 349 349 349 349 349 345 346 348 349 350 348 349 351 351 349 349 349 349 347 344 345 340 342 343 350 353 358 361 360 358 355 356 356
341 342 345 346 349 349 349 348 347 348 348 349 348 348 351 349 347 347 348 348 348 349 350 351 348 346 345 348 348 348 345 347 347 346 346 350 358 358 358 357 353 353 353
339 341 343 346 348 347 348 348 347 346 350 349 348 349 350 350 347 347 348 347 347 348 348 348 345 345 346 346 345 345 347 348 349 349 345 346 349 359 357 356 349 352 354
339 339 342 346 346 347 347 348 348 346 348 349 349 349 351 351 348 347 346 346 347 347 346 347 345 343 343 342 343 345 344 346 347 350 349 348 349 350 355 358 350 351 353
339 340 340 344 344 345 346 346 347 346 346 348 350 349 350 351 350 348 346 346 348 347 345 344 343 343 343 344 345 347 347 347 349 348 349 349 349 351 350 356 354 353 355
339 338 340 342 341 343 345 346 347 347 347 349 349 348 348 348 351 348 347 346 348 346 344 344 345 346 346 346 347 349 349 350 351 349 349 349 347 348 351 351 354 354 354
339 335 338 339 340 342 342 343 344 343 347 348 348 350 348 350 352 350 350 349 348 346 346 347 348 346 347 348 345 342 342 344 348 349 349 349 348 348 347 349 350 350 350
335 336 337 339 342 342 344 345 347 345 346 346 347 348 351 350 353 350 350 348 349 347 347 349 348 345 346 347 341 335 333 338 340 344 347 347 347 350 349 348 348 349 349
335 335 337 338 342 344 345 345 343 347 347 346 347 347 352 352 353 352 351 350 349 347 347 350 348 345 342 344 344 338 331 330 331 334 342 343 345 347 349 351 351 349 349
333 337 337 339 342 345 345 345 342 340 340 344 346 347 347 352 353 354 352 352 351 350 348 349 349 347 345 340 341 341 339 336 330 326 333 340 344 345 347 349 349 348 350
333 336 337 339 341 344 345 346 343 340 342 345 346 346 344 350 353 354 353 351 349 350 349 348 347 346 345 342 339 333 330 332 334 330 327 327 340 342 344 345 345 346 346
333 336 338 339 340 343 345 345 343 341 341 342 343 343 343 347 350 353 353 351 351 350 348 348 346 343 341 337 333 331 331 328 327 327 323 326 334 337 338 340 341 343 341
Wind_Speed
3 4 16 17 15 17 18 18 17 18 18 18 17 17 16 14 13 11 10 10 10 9 7 7 8 8 10 10 11 13 12 11 12 11 11 11 11 11 12 13 13 11 15
7 5 15 16 16 17 17 17 16 16 16 16 15 15 15 14 11 10 10 9 9 8 6 7 8 9 11 12 12 14 12 10 11 11 11 9 11 10 12 12 12 11 13
6 5 9 14 17 17 17 16 15 16 15 14 14 14 13 14 10 9 8 9 7 7 6 8 10 10 11 12 11 11 8 10 10 10 9 4 4 11 10 11 11 12 13
5 5 8 14 15 16 17 15 16 15 15 13 12 14 12 12 9 8 7 6 5 7 7 10 12 12 11 11 11 10 8 7 11 9 4 3 5 10 10 12 11 11 12
5 5 9 15 15 14 14 15 15 14 13 12 11 11 11 11 9 7 6 6 5 6 9 10 11 10 10 9 10 9 8 9 10 7 4 3 3 8 11 10 12 11 10
5 5 10 14 15 15 13 12 14 13 12 10 9 9 9 9 9 7 7 7 5 5 9 10 9 10 9 8 8 9 9 10 9 5 4 4 3 9 10 11 10 11 11
5 5 7 12 14 13 12 11 12 11 11 10 9 8 7 7 7 7 7 7 7 6 8 10 10 9 9 7 5 6 8 8 5 3 4 3 3 6 10 9 10 11 10
7 5 6 12 12 12 12 11 11 10 10 10 9 8 7 6 5 5 6 6 6 7 7 8 9 8 7 7 4 3 4 9 5 4 4 3 2 5 8 8 8 9 8
7 5 4 5 9 12 12 11 11 10 10 10 10 8 6 5 6 6 5 5 5 7 7 6 6 6 4 4 2 2 2 7 4 4 4 2 2 2 7 8 8 8 8
6 5 5 5 4 5 5 9 10 10 10 9 9 8 6 6 6 6 6 5 5 5 6 7 5 6 4 3 1 1 6 8 5 4 2 1 3 2 8 7 8 7 7
4 5 5 5 5 5 4 4 9 10 10 9 8 8 6 3 1 3 6 5 5 5 6 5 6 6 5 2 1 1 5 3 4 2 2 4 5 4 6 7 7 7 7
6 4 4 4 4 4 3 2 3 3 2 3 3 2 3 2 2 3 3 7 7 6 5 6 5 4 4 2 2 5 1 3 3 2 2 6 7 8 8 7 7 7 6
7 5 6 5 4 5 3 2 1 1 1 1 3 3 3 2 1 1 0 2 1 2 2 2 3 2 2 1 1 2 1 2 1 1 3 8 9 8 7 7 6 7 7
8 8 5 5 5 5 3 3 3 2 2 2 3 3 3 2 2 2 2 2 1 1 2 1 1 2 1 0 1 1 2 2 1 2 3 8 10 10 7 7 6 6 7
9 8 8 8 7 5 5 3 3 3 2 3 3 4 3 3 3 2 2 2 2 2 2 2 2 3 2 3 3 3 4 4 4 2 2 8 9 11 6 6 7 6 6
11 11 9 10 9 6 5 5 4 3 3 3 3 4 5 4 4 3 2 3 2 2 2 1 1 1 1 1 4 4 5 4 4 4 3 4 9 9 9 11 6 4 3
10 9 11 11 7 7 7 5 4 4 4 4 4 5 5 4 4 4 3 2 2 2 2 2 2 1 1 1 3 4 4 5 4 4 3 2 3 10 9 9 6 8 9
9 11 10 11 10 9 8 5 4 4 4 3 3 3 5 4 3 4 3 3 3 3 2 2 3 2 2 3 3 4 4 5 5 5 3 3 3 4 8 10 16 16 12
13 11 11 10 10 10 6 4 4 5 4 4 3 2 4 3 4 3 3 3 3 2 3 2 2 2 2 3 4 4 4 4 5 5 6 4 4 4 3 9 17 16 15
10 8 10 9 8 7 4 3 2 3 3 2 3 3 4 4 5 3 3 3 4 3 3 2 3 2 2 2 3 4 3 3 3 4 5 3 3 5 5 5 4 7 15
8 10 12 11 8 8 4 4 2 3 3 2 3 5 5 5 5 4 3 3 4 4 3 3 2 2 2 1 2 1 1 1 3 2 2 2 4 5 5 4 4 3 4
12 12 12 13 11 9 7 3 3 3 2 1 2 4 4 5 5 5 4 3 4 3 3 3 3 1 1 1 1 1 3 3 2 3 2 2 4 3 4 5 5 5 3
13 15 15 15 14 11 8 6 3 3 3 2 3 3 4 5 5 5 5 4 4 4 4 3 4 4 2 1 2 2 1 2 2 3 5 3 1 2 1 2 4 3 3
16 11 13 12 14 12 12 10 6 5 4 4 4 3 4 5 5 5 4 4 4 3 4 3 4 3 3 3 1 0 2 2 1 1 3 4 5 4 3 2 4 5 4
14 13 13 12 11 11 14 12 9 5 3 2 2 5 4 3 4 5 5 5 4 3 3 4 4 3 2 2 2 2 1 1 1 1 1 1 4 5 5 5 5 6 6
11 11 11 12 13 12 13 12 13 11 7 4 3 4 3 2 3 5 5 5 4 4 4 3 4 4 3 2 2 1 2 2 2 2 2 2 3 4 5 5 4 5 5
Wind_Direction
160 144 138 122 121 114 111 111 112 113 112 112 115 115 118 117 117 116 119 116 111 106 102 93 108 116 105 110 114 123 117 115 107 107 102 103 96 97 95 96 96 95 100
125 147 138 128 122 119 115 116 118 116 114 113 118 120 123 117 120 126 127 117 113 112 111 101 111 110 109 114 117 123 121 118 118 118 113 109 111 109 104 101 103 99 102
123 149 132 133 130 128 122 123 122 120 122 124 128 125 125 121 127 132 123 110 111 116 109 98 113 116 115 119 127 120 118 127 124 118 107 112 124 117 107 107 112 112 102
137 140 137 140 135 135 131 134 127 128 130 137 137 136 138 130 134 129 119 113 116 117 116 109 108 111 113 121 131 140 136 121 112 92 61 91 113 121 125 117 112 113 115
121 126 144 143 141 139 136 139 136 140 142 149 145 140 139 136 138 126 111 112 129 124 122 112 109 112 114 117 124 134 129 116 106 91 77 57 68 132 126 125 125 121 119
140 150 154 151 148 142 146 144 143 147 153 159 158 150 145 143 142 132 121 118 127 115 110 112 112 113 111 113 126 137 133 135 106 95 80 84 74 129 131 137 136 128 128
139 155 153 158 150 151 141 150 146 148 162 168 163 161 152 146 147 140 128 130 135 123 117 122 127 123 120 123 137 133 128 132 140 127 111 93 68 141 144 140 137 138 135
153 155 168 164 160 155 153 164 152 153 167 165 163 168 159 152 154 151 146 151 148 128 122 121 122 131 133 137 154 150 170 159 145 162 139 121 102 148 145 144 135 130 130
158 135 135 154 173 164 167 173 159 164 167 166 163 165 171 160 172 168 162 150 152 146 135 125 112 110 106 121 160 209 164 130 139 161 157 124 159 171 154 150 144 147 146
136 135 154 161 158 164 165 172 174 174 172 179 173 170 177 179 180 175 153 171 158 147 146 140 127 112 104 76 2 223 136 117 125 153 160 192 218 221 154 171 147 159 161
154 163 172 173 161 160 163 204 186 181 184 180 181 180 186 91 8 173 160 194 164 170 160 149 131 130 127 124 64 326 69 123 124 141 177 189 213 228 168 169 163 166 174
178 177 183 171 162 160 168 200 142 215 162 152 162 143 128 132 130 157 170 180 181 167 172 162 139 141 118 55 3 22 67 141 136 153 194 198 215 218 183 176 181 167 178
186 181 183 181 180 172 176 159 177 213 122 192 163 157 138 117 31 70 38 14 47 194 73 108 108 94 126 103 26 47 33 133 180 250 221 209 203 235 196 172 196 197 191
180 190 177 180 183 186 164 199 182 190 185 201 203 175 148 147 201 203 187 165 173 65 103 132 126 128 125 287 174 249 207 216 213 232 240 218 202 216 205 196 195 215 208
181 180 188 183 195 188 186 196 190 205 191 211 203 200 171 173 203 214 239 185 179 138 195 200 166 164 201 231 254 248 235 214 229 252 220 243 206 211 175 197 214 225 230
191 189 184 197 200 178 190 193 204 187 199 211 218 210 201 183 198 191 210 198 170 190 200 219 38 24 272 88 270 279 272 266 256 251 245 236 229 207 198 193 231 268 253
192 180 187 197 193 188 190 196 196 193 183 212 220 214 224 202 195 170 176 160 204 190 166 115 91 121 198 321 258 257 263 261 265 264 250 248 282 223 200 204 192 272 272
189 184 187 192 190 193 199 191 190 198 199 214 226 221 219 174 182 167 161 176 175 166 131 135 164 166 197 217 241 254 259 258 261 250 245 245 225 233 206 188 180 243 254
192 188 190 190 188 192 193 176 195 204 203 212 185 181 187 152 171 169 171 176 165 156 161 185 180 191 212 242 257 261 256 254 252 253 245 237 225 213 208 206 203 226 245
193 178 184 186 174 170 157 154 170 199 209 191 180 193 174 167 162 164 185 176 163 154 170 192 198 198 238 244 255 264 247 252 249 239 240 241 218 226 215 216 220 233 247
178 172 183 178 171 158 158 157 164 191 182 193 187 187 177 179 168 163 176 171 154 170 193 191 176 197 269 284 309 313 328 270 257 266 286 238 234 235 230 226 230 243 259
191 190 187 191 174 181 181 159 154 155 203 127 153 212 202 175 163 170 163 177 166 158 195 193 176 161 209 183 104 37 359 337 56 27 137 216 244 248 236 224 230 233 244
195 191 190 190 180 179 169 132 90 92 82 135 198 191 198 179 167 165 163 170 180 181 187 199 179 175 180 165 162 134 125 238 329 3 48 36 13 224 184 214 191 155 142
210 189 190 186 181 175 160 170 161 174 165 194 184 160 180 173 169 168 168 176 189 189 196 188 170 172 158 177 96 108 233 155 147 21 38 31 43 44 117 115 97 99 100
198 189 191 181 178 172 173 177 178 173 175 164 159 164 151 201 167 163 186 177 193 190 189 176 158 169 192 147 155 158 103 64 94 141 188 30 62 37 42 78 100 98 86
183 177 177 182 184 176 178 178 182 184 170 174 168 174 163 171 187 178 175 180 184 184 178 160 156 169 174 128 120 146 177 178 194 159 130 80 84 41 39 55 73 87 80